Regional Weather Roundup
Issued by NWS Wakefield, VA

Home | Current Version | Previous Version | Graphics & Text | Print | Product List | Glossary On
Versions: 1 2 3 4 5 6 7 8 9 10 11 12 13 14 15 16 17 18 19 20 21 22 23 24 25 26 27 28 29 30 31 32 33 34 35 36 37 38 39 40 41 42 43 44 45 46 47 48 49 50
404
ASUS41 KAKQ 240515
RWRAKQ

REGIONAL WEATHER ROUNDUP
NATIONAL WEATHER SERVICE WAKEFIELD VA
100 AM EDT TUE MAY 24 2016

Note: "fair" indicates few or no clouds below 12,000 feet with no
significant weather and/or obstructions to visibility. * = Denotes
station may not report precipitation (e.g., rain,snow,etc.),
thunder or fog.

VAZ042-051-052>054-056-240600-
NORTHERN VIRGINIA

CITY           SKY/WX    TMP DP  RH WIND       PRES   REMARKS
WASH NATIONAL  LGT RAIN  61  57  87 W7        29.95F
DULLES         MOCLDY    54  54 100 SE5       29.95F
FORT BELVOIR   MOCLDY    58  56  95 VRB1      29.99R
QUANTICO       MOCLDY    58  56  93 NW8       29.96F
FREDERICKSBRG* FAIR      57  57 100 CALM      29.96S
STAFFORD*      FAIR      55  53  93 CALM      30.00S
WARRENTON      FAIR      56  51  85 CALM      29.95F
CULPEPER*      FAIR      54  54 100 CALM      29.97F FOG
MANASSAS*      FAIR      55  55 100 CALM      29.96S
LEESBURG*      FAIR      59  59 100 CALM      29.96F
WINCHESTER     MOCLDY    55  54  94 CALM      29.98S
FRONT ROYAL*   MOCLDY    55  54  94 SW6       29.97S
LURAY*         MOCLDY    59  55  88 SE5       30.00S
$$

VAZ048-049-060>072-079>083-240600-
CENTRAL AND SOUTH CENTRAL VIRGINIA

CITY           SKY/WX    TMP DP  RH WIND       PRES   REMARKS
RICHMOND       CLOUDY    57  54  89 CALM      29.97S
CHESTERFIELD*  FAIR      57  45  62 W5        29.99S
PETERSBURG*    FAIR      56  56 100 CALM      29.99R
HANOVER        FAIR      56  53  90 W3        29.98F
TAPPAHANNOCK*  FAIR      57  56  98 CALM      29.98R
QUINTON*       FAIR      55  55  97 CALM      29.97S
CHARLOTTSVILLE CLOUDY    58  55  90 SW5       29.99F
GORDONSVILLE*  FAIR      55  55  99 SW6       29.97F
ORANGE*        FAIR      55  55 100 CALM      29.99F
LOUISA*        FAIR      55  55 100 W3        29.97F FOG
BUMPASS*       FAIR      54  54 100 CALM      29.98F
FARMVILLE*     MOCLDY    55  55 100 CALM      29.99S
CREWE*         FAIR      53  53 100 CALM      29.99F
FORT PICKETT*  NOT AVBL
CHASE CITY*    FAIR      53  52  95 CALM      30.01F
CLARKSVILLE*   FAIR      54  52  94 W3        30.01F
SOUTH HILL*    CLOUDY    58  52  81 W5        30.06S
LAWRENCEVILLE* MOCLDY    57  54  87 W5        30.00S
EMPORIA*       MOCLDY    57  52  82 CALM      30.01R
$$

VAZ088>098-240600-
SOUTHEAST VIRGINIA

CITY           SKY/WX    TMP DP  RH WIND       PRES   REMARKS
NORFOLK        FAIR      59  55  87 W5        29.96S
VIRGINIA BEACH MOCLDY    60  54  80 SW5       29.95S
NORFOLK NAVAL  MOCLDY    62  56  80 W8        29.98S
WEST POINT*    FAIR      56  55  99 CALM      29.98S
SALUDA*        CLOUDY    57  56  96 CALM      29.96R
NEWPORT NEWS   FAIR      59  56  89 W3        29.97S
LANGLEY AFB    MOCLDY    58  56  94 NW6       29.97R
FORT EUSTIS    MOCLDY    59  56  91 W2        29.96R
WILLIAMSBURG*  FAIR      57  57 100 CALM      29.98S
HR EXEC AP*      N/A     55  52  88 W3        30.00S
FRANKLIN*      FAIR      54  53  95 CALM      29.99S
US460-WAKEFLD  FAIR      57  54  89 CALM      29.99R
$$

VAZ020-022-025-037-045-240600-
WEST CENTRAL AND SOUTHWEST VIRGINIA

CITY           SKY/WX    TMP DP  RH WIND       PRES   REMARKS
STAUNTON*      LGT RAIN  57  57 100 W5        30.05F
WAYNESBORO*    CLOUDY    55  53  94 W7        30.05R
HOT SPRINGS VA FAIR      53  45  74 W9        30.09S
LYNCHBURG      CLOUDY    54  53  97 CALM      30.04R
DANVILLE       FAIR      51  50  96 SW5       30.03F
SOUTH BOSTON*  FAIR      51  50  96 CALM      30.02F
MARTINSVILLE   FAIR      46  46 100 CALM      30.07F FOG
ROANOKE        FAIR      57  54  89 CALM      30.07R
BLACKSBURG     FAIR      53  52  97 CALM      30.12S
DUBLIN*        FAIR      54  51  89 CALM      30.10F
MARION*        FAIR      48  47  95 CALM      30.14S
HILLSVILLE*    FAIR      52  49  90 W5        30.09F
RICHLANDS*     FAIR      51  37  57 CALM      30.12S
WISE*          FAIR      57  43  58 CALM      30.12S
ABINGDON*      FAIR      52  50  92 CALM      30.10S
$$

MDZ021>025-VAZ099-100-240600-
SOUTHERN MARYLAND AND THE DELMARVA PENINSULA

CITY           SKY/WX    TMP DP  RH WIND       PRES   REMARKS
PATUXENT RIVER MOCLDY    59  55  87 W5        29.95S
BAY BRIDGE APT CLOUDY    59  55  88 CALM      29.94F
LEONARDTOWN    CLOUDY    57  54  88 CALM      29.97S
DOVER          CLOUDY    59  59 100 S3        29.93F
GEORGETOWN     CLOUDY    58  54  86 W3        29.95R
EASTON         CLOUDY    58  58 100 CALM      29.98S
CAMBRIDGE        N/A     55  55 100 CALM      29.94F
SALISBURY      CLOUDY    57  54  89 CALM      29.94R
OCEAN CITY     CLOUDY    55  53  93 CALM      29.93F
WALLOPS ISLAND CLOUDY    58  55  90 CALM      29.94S
ACCOMACK*      CLOUDY    55  54  94 CALM      29.94S
$$

NCZ012>017-030>032-240600-
NORTH CENTRAL AND EASTERN NORTH CAROLINA

CITY           SKY/WX    TMP DP  RH WIND       PRES   REMARKS
ROANOKE RAPIDS MOCLDY    54  52  94 SW3       30.01S
RALEIGH        PTCLDY    51  50  96 CALM      30.04F
ELIZABETH CITY CLOUDY    57  55  93 W6        29.97F
AHOSKIE*       CLOUDY    55  52  90 CALM      30.00S
EDENTON*       CLOUDY   N/A N/A N/A NW6       30.00S
CURRITUCK*     CLOUDY    57  56  95 CALM      29.97F
KILL DEVIL HLS CLOUDY    59  54  82 CALM      29.96S
MANTEO         CLOUDY    60  58  91 W3        29.97F
CAPE HATTERAS  PTCLDY    62  55  77 NW6       29.99S
TARBORO*       FAIR      52  51  98 CALM      30.02F
GOLDSBORO      CLEAR     53  53 100 CALM      30.02S
WASHINGTON     PTCLDY    54  52  94 SW5       30.01S
GREENVILLE     PTCLDY    54  54 100 CALM      30.04S
NEW BERN       CLEAR     54  52  93 SW5       30.04S
WILMINGTON     PTCLDY    56  54  93 CALM      30.04F
$$

VAZ048-240600-
ELSEWHERE

CITY           SKY/WX    TMP DP  RH WIND       PRES   REMARKS
HARRISBURG PA  CLOUDY    59  55  87 NW8       29.92F
BALTIMORE      LGT RAIN  59  56  89 VRB6      29.94R
ANNAPOLIS      CLOUDY    60  56  86 W5        29.93F
ANDREWS AFB    FAIR      60  57  90 W8        29.93F
PHILADELPHIA   CLOUDY    60  51  72 S6        29.94S
HENDERSON NC   CLEAR     52  48  87 SW5       30.02F
GREENSBORO     PTCLDY    54  51  90 W5        30.05S
ROCKY MOUNT    CLEAR     51  49  92 S5        30.02F
$$

VAZ100-240600-
MARINE

STATION/POSITION TIME  TEMP    WIND        PRES    WAVE   SWELL
                       AIR SEA DIR/SP/G            HT/PER HT/PER
                 (UTC) (F)     (DEG/KT/KT) (MB)    (FT/S) (FT/S)
BRANDYWINE LGT   0400   58     130/  4/  7 1013.9R
CAPE MAY NJ      0400   56 63  130/  1/  2 1013.3
LEWES DE         0400   58 60  150/  2/  3 1013.6
15NM E FENWICK I 0450   56 55              1013.2F   4/ 8
OCEAN-CITY-INLET 0400   58 58  280/  4/  4 1012.9
WACHAPREAGUE VA  0400   57 63  260/  2/  4 1013.3
THOMAS POINT MD  0500   61 61  260/  4/  4 1014.9F
GOOSES REEF MD   0500   61 61  300/  6/  8 1015.1F   0
COVE POINT MD    0400   60     350/ 10/ 11 1014.9R
SOLOMONS ISLAND  0400   60 62  320/  4/  6   N/A
BISHOPS HEAD MD  0400   61 63  330/  2/  3 1014.4
PINEY POINT MD   0400          340/ 10/ 11   N/A
POTOMAC MD       0500   61 62  310/  8/ 10 1013.3R   1
CAMBRIDGE MD     0400   60 63  280/  3/  4 1013.6
LEWISETTA VA     0400   60 63  220/  5/  6 1013.7
RAPPAHANNOCK LGT 0400          310/  6/  6 1014.5F
STINGRAY PT      0500   62 63  270/  6/  8 1014.6R   0
YORK RVR RNG VA  0400   61     310/  6/  8 1014.0R
YORKTOWN VA      0400   60 65  260/  4/  5 1014.3
JAMESTOWN VA     0500   61 66  250/  6/  6   N/A     0
DOMINION TERM VA 0400   63     320/  5/  8 1014.8R
KIPTOPEKE VA     0400      63  210/  5/  5   N/A
CHES BAY BRIDGE  0400   60 61  190/  6/  7 1014.4
CAPE HENRY VA    0400   58     200/  4/  5   N/A
CHESAPEAKE LGHT  0400   58     340/  3/  3 1015.2R
WILLOUBY STN VA  0400   62     300/  8/  9 1015.6R
CAPE HENRY BUOY  0412      59                N/A     4/ 9   2/11
1ST LANDING BUOY 0500   60 63  250/  8/ 10 1014.4F   2/ 5
CAPE CHARLES BUO 0426      59                N/A     4/ 8   3/ 8
OFFSHORE WE BUOY 0421      58                N/A     5/ 8   5/ 8
64NM E OF VA BCH 0450   57 66  330/ 12/ 14 1013.5R   7/ 9   7/ 9
DUCK PIER NC     0400   61 63  280/  6/  7 1014.2
44100 DUCK FRF   0424      58                N/A     5/ 9   2/11
44056 DUCK FRF   0411      62                N/A     4/10   2/11
OREGON INLET NC  0400   59 65  310/  3/  5 1015.0
HATTERAS NC      0400   63 68  290/  9/ 13 1015.1
DIAMOND SHLS NC  0450   63 67  310/ 12/ 16 1015.3F   4/ 9   3/ 9
CAPE C1F1C2F2C3F3C4F4C5F5C6F6C7F7C8M1C9!



USA.gov is the U.S. government's official web portal to all federal, state and local government web resources and services.